Time,TemperatureF,DewpointF,PressureIn,WindDirection,WindDirectionDegrees,WindSpeedMPH,WindSpeedGustMPH,Humidity,HourlyPrecipIn,Conditions,Clouds,dailyrainin,SolarRadiationWatts/m^2,SoftwareType,DateUTC
2013-01-12 00:00:00,33.0,32.0,30.11,ENE,60,4.0,4.0,96,0.00,BKN,OVC,0.00,0.0,WeatherDisplay:10.37,2013-01-12 05:00:00,
2013-01-12 00:01:00,33.1,32.1,30.11,ENE,76,4.0,4.0,96,0.00,BKN,OVC,0.00,0.0,WeatherDisplay:10.37,2013-01-12 05:01:00,
2013-01-12 00:03:00,33.1,32.1,30.11,ENE,78,3.5,3.5,96,0.00,BKN,OVC,0.00,0.0,WeatherDisplay:10.37,2013-01-12 05:03:00,
2013-01-12 00:09:00,33.2,32.2,30.11,ENE,70,1.1,1.1,96,0.00,BKN,OVC,0.00,0.0,WeatherDisplay:10.37,2013-01-12 05:09:00,
2013-01-12 00:10:00,33.2,32.2,30.11,ENE,72,0.0,1.0,96,0.00,BKN,OVC,0.00,0.0,WeatherDisplay:10.37,2013-01-12 05:10:00,
2013-01-12 00:16:00,33.2,32.2,30.12,NE,52,3.0,3.0,96,0.00,BKN,OVC,0.00,0.0,WeatherDisplay:10.37,2013-01-12 05:16:00,
2013-01-12 00:21:00,33.4,32.4,30.12,ENE,58,3.5,3.5,96,0.00,BKN,OVC,0.00,0.0,WeatherDisplay:10.37,2013-01-12 05:21:00,
2013-01-12 00:26:00,33.4,32.4,30.12,ENE,58,2.3,2.3,96,0.00,BKN,OVC,0.00,0.0,WeatherDisplay:10.37,2013-01-12 05:26:00,
2013-01-12 00:31:00,33.4,32.4,30.11,ENE,67,5.0,5.0,96,0.00,BKN,OVC,0.00,0.0,WeatherDisplay:10.37,2013-01-12 05:31:00,
2013-01-12 00:36:00,33.5,32.5,30.11,East,89,5.0,5.0,96,0.00,BKN,OVC,0.00,0.0,WeatherDisplay:10.37,2013-01-12 05:36:00,
2013-01-12 00:41:00,33.6,32.6,30.11,East,90,6.9,6.9,96,0.00,BKN,OVC,0.00,0.0,WeatherDisplay:10.37,2013-01-12 05:41:00,
2013-01-12 00:46:00,33.7,32.7,30.10,NE,55,3.5,3.5,96,0.00,BKN,OVC,0.00,0.0,WeatherDisplay:10.37,2013-01-12 05:46:00,
2013-01-12 00:51:00,33.7,32.7,30.10,ENE,70,3.5,3.5,96,0.00,BKN,OVC,0.00,0.0,WeatherDisplay:10.37,2013-01-12 05:51:00,
2013-01-12 00:56:00,33.7,32.7,30.10,ENE,70,1.0,1.0,96,0.00,BKN,OVC,0.00,0.0,WeatherDisplay:10.37,2013-01-12 05:56:00,
2013-01-12 01:01:00,33.7,32.7,30.11,ENE,78,3.0,3.0,96,0.00,BKN,OVC,0.00,0.0,WeatherDisplay:10.37,2013-01-12 06:01:00,
2013-01-12 01:06:00,33.7,32.7,30.11,NE,55,4.0,4.0,96,0.00,BKN,OVC,0.00,0.0,WeatherDisplay:10.37,2013-01-12 06:06:00,
2013-01-12 01:11:00,33.7,32.7,30.11,East,83,3.0,3.0,96,0.00,BKN,OVC,0.00,0.0,WeatherDisplay:10.37,2013-01-12 06:11:00,
2013-01-12 01:16:00,33.7,32.7,30.11,NE,53,2.3,2.3,96,0.00,BKN,OVC,0.00,0.0,WeatherDisplay:10.37,2013-01-12 06:16:00,
2013-01-12 01:21:00,33.7,32.7,30.11,East,82,3.5,3.5,96,0.00,BKN,OVC,0.00,0.0,WeatherDisplay:10.37,2013-01-12 06:21:00,
2013-01-12 01:26:00,33.7,32.7,30.11,ENE,76,3.5,3.5,96,0.00,BKN,OVC,0.00,0.0,WeatherDisplay:10.37,2013-01-12 06:26:00,
2013-01-12 01:31:00,33.7,32.7,30.12,ENE,64,3.5,3.5,96,0.00,BKN,OVC,0.00,0.0,WeatherDisplay:10.37,2013-01-12 06:31:00,
2013-01-12 01:36:00,33.7,32.7,30.12,ENE,58,2.3,2.3,96,0.00,BKN,OVC,0.00,0.0,WeatherDisplay:10.37,2013-01-12 06:36:00,
2013-01-12 01:41:00,33.7,32.7,30.12,ENE,58,1.1,1.1,96,0.00,BKN,OVC,0.00,0.0,WeatherDisplay:10.37,2013-01-12 06:41:00,
2013-01-12 01:46:00,33.7,32.7,30.12,ENE,58,2.3,2.3,96,0.00,BKN,OVC,0.00,0.0,WeatherDisplay:10.37,2013-01-12 06:46:00,
2013-01-12 01:51:00,33.6,32.6,30.12,ENE,58,0.0,0.0,96,0.00,BKN,OVC,0.00,0.0,WeatherDisplay:10.37,2013-01-12 06:51:00,
2013-01-12 01:56:00,33.6,32.6,30.12,ENE,58,0.0,0.0,96,0.00,BKN,OVC,0.00,0.0,WeatherDisplay:10.37,2013-01-12 06:56:00,
2013-01-12 02:01:00,33.5,32.5,30.10,ENE,58,0.0,0.0,96,0.00,BKN,OVC,0.00,0.0,WeatherDisplay:10.37,2013-01-12 07:01:00,
2013-01-12 02:06:00,33.5,32.5,30.10,ENE,58,1.1,1.1,96,0.01,RA,OVC,0.01,0.0,WeatherDisplay:10.37,2013-01-12 07:06:00,
2013-01-12 02:11:00,33.4,32.4,30.10,ENE,58,0.0,0.0,96,0.01,RA,OVC,0.01,0.0,WeatherDisplay:10.37,2013-01-12 07:11:00,
2013-01-12 02:16:00,33.3,32.3,30.11,ENE,58,1.1,1.1,96,0.01,BKN,OVC,0.01,0.0,WeatherDisplay:10.37,2013-01-12 07:16:00,
2013-01-12 02:21:00,33.2,32.2,30.11,ENE,58,0.0,0.0,96,0.01,BKN,OVC,0.01,0.0,WeatherDisplay:10.37,2013-01-12 07:21:00,
2013-01-12 02:26:00,33.2,32.2,30.11,ENE,58,0.0,0.0,96,0.01,BKN,OVC,0.01,0.0,WeatherDisplay:10.37,2013-01-12 07:26:00,
2013-01-12 02:31:00,33.1,32.1,30.11,NE,42,1.1,1.1,96,0.01,BKN,OVC,0.01,0.0,WeatherDisplay:10.37,2013-01-12 07:31:00,
2013-01-12 02:36:00,33.1,32.1,30.11,NE,42,1.0,1.0,96,0.01,BKN,OVC,0.01,0.0,WeatherDisplay:10.37,2013-01-12 07:36:00,
2013-01-12 02:41:00,33.1,32.1,30.11,NE,42,0.0,0.0,96,0.01,BKN,OVC,0.01,0.0,WeatherDisplay:10.37,2013-01-12 07:41:00,
2013-01-12 02:46:00,33.1,32.1,30.11,NE,42,0.0,0.0,96,0.01,BKN,OVC,0.01,0.0,WeatherDisplay:10.37,2013-01-12 07:46:00,
2013-01-12 02:51:00,33.0,32.0,30.11,NE,42,1.1,1.1,96,0.01,BKN,OVC,0.01,0.0,WeatherDisplay:10.37,2013-01-12 07:51:00,
2013-01-12 02:56:00,32.9,31.9,30.11,NE,42,1.0,1.0,96,0.01,BKN,OVC,0.01,0.0,WeatherDisplay:10.37,2013-01-12 07:56:00,
2013-01-12 03:01:00,32.9,31.9,30.11,NE,42,0.0,0.0,96,0.01,BKN,OVC,0.01,0.0,WeatherDisplay:10.37,2013-01-12 08:01:00,
2013-01-12 03:06:00,32.9,31.9,30.11,NE,42,0.0,0.0,96,0.00,BKN,OVC,0.01,0.0,WeatherDisplay:10.37,2013-01-12 08:06:00,
2013-01-12 03:11:00,33.0,32.0,30.11,NE,42,0.0,0.0,96,0.00,BKN,OVC,0.01,0.0,WeatherDisplay:10.37,2013-01-12 08:11:00,
2013-01-12 03:16:00,33.1,32.3,30.11,NE,42,1.1,0.0,97,0.00,BKN,OVC,0.01,0.0,WeatherDisplay:10.37,2013-01-12 08:16:00,
2013-01-12 03:21:00,33.2,32.4,30.11,NE,42,2.3,0.0,97,0.00,BKN,OVC,0.01,0.0,WeatherDisplay:10.37,2013-01-12 08:21:00,
2013-01-12 03:26:00,33.4,32.6,30.11,NE,42,1.1,1.1,97,0.00,BKN,OVC,0.01,0.0,WeatherDisplay:10.37,2013-01-12 08:26:00,
2013-01-12 03:31:00,33.4,32.6,30.10,NE,42,1.1,1.1,97,0.00,BKN,OVC,0.01,0.0,WeatherDisplay:10.37,2013-01-12 08:31:00,
2013-01-12 03:36:00,33.2,32.4,30.10,ENE,61,3.0,3.0,97,0.00,BKN,OVC,0.01,0.0,WeatherDisplay:10.37,2013-01-12 08:36:00,
2013-01-12 03:41:00,33.1,32.1,30.10,ENE,61,1.1,0.0,96,0.00,BKN,OVC,0.01,0.0,WeatherDisplay:10.37,2013-01-12 08:41:00,
2013-01-12 03:46:00,33.1,32.3,30.10,ENE,61,0.0,0.0,97,0.00,BKN,OVC,0.01,0.0,WeatherDisplay:10.37,2013-01-12 08:46:00,
2013-01-12 03:51:00,33.1,32.3,30.10,ENE,61,2.0,2.0,97,0.00,BKN,OVC,0.01,0.0,WeatherDisplay:10.37,2013-01-12 08:51:00,
2013-01-12 03:56:00,33.0,32.2,30.10,ENE,61,1.1,1.1,97,0.00,BKN,OVC,0.01,0.0,WeatherDisplay:10.37,2013-01-12 08:56:00,
2013-01-12 04:01:00,32.9,32.1,30.10,ENE,61,1.1,1.1,97,0.00,BKN,OVC,0.01,0.0,WeatherDisplay:10.37,2013-01-12 09:01:00,
2013-01-12 04:06:00,32.9,31.9,30.10,ENE,61,1.0,1.0,96,0.00,BKN,OVC,0.01,0.0,WeatherDisplay:10.37,2013-01-12 09:06:00,
2013-01-12 04:11:00,32.8,31.8,30.10,ENE,61,1.1,0.0,96,0.00,BKN,OVC,0.01,0.0,WeatherDisplay:10.37,2013-01-12 09:11:00,
2013-01-12 04:16:00,32.8,31.8,30.10,ENE,61,1.1,0.0,96,0.00,BKN,OVC,0.01,0.0,WeatherDisplay:10.37,2013-01-12 09:16:00,
2013-01-12 04:21:00,32.7,31.9,30.10,ENE,61,0.0,0.0,97,0.00,BKN,OVC,0.01,0.0,WeatherDisplay:10.37,2013-01-12 09:21:00,
2013-01-12 04:26:00,32.7,31.9,30.10,ENE,61,0.0,0.0,97,0.00,BKN,OVC,0.01,0.0,WeatherDisplay:10.37,2013-01-12 09:26:00,
2013-01-12 04:31:00,32.7,31.9,30.09,ENE,61,0.0,0.0,97,0.00,BKN,OVC,0.01,0.0,WeatherDisplay:10.37,2013-01-12 09:31:00,
2013-01-12 04:36:00,32.7,31.9,30.09,ENE,61,0.0,0.0,97,0.00,BKN,OVC,0.01,0.0,WeatherDisplay:10.37,2013-01-12 09:36:00,
2013-01-12 04:41:00,32.6,31.8,30.09,ENE,61,0.0,0.0,97,0.00,BKN,OVC,0.01,0.0,WeatherDisplay:10.37,2013-01-12 09:41:00,
2013-01-12 04:46:00,32.6,31.8,30.08,ENE,61,0.0,0.0,97,0.00,BKN,OVC,0.01,0.0,WeatherDisplay:10.37,2013-01-12 09:46:00,
2013-01-12 04:51:00,32.6,31.8,30.08,ENE,61,0.0,0.0,97,0.00,BKN,OVC,0.01,0.0,WeatherDisplay:10.37,2013-01-12 09:51:00,
2013-01-12 04:56:00,32.6,31.8,30.08,ENE,61,0.0,0.0,97,0.00,BKN,OVC,0.01,0.0,WeatherDisplay:10.37,2013-01-12 09:56:00,
2013-01-12 05:01:00,32.6,31.8,30.07,ENE,61,0.0,0.0,97,0.00,BKN,OVC,0.01,0.0,WeatherDisplay:10.37,2013-01-12 10:01:00,
2013-01-12 05:06:00,32.6,31.8,30.07,ENE,61,0.0,0.0,97,0.00,BKN,OVC,0.01,0.0,WeatherDisplay:10.37,2013-01-12 10:06:00,
2013-01-12 05:11:00,32.6,31.8,30.07,ENE,61,0.0,0.0,97,0.00,BKN,OVC,0.01,0.0,WeatherDisplay:10.37,2013-01-12 10:11:00,
2013-01-12 05:16:00,32.6,31.8,30.06,ENE,61,0.0,0.0,97,0.00,BKN,OVC,0.01,0.0,WeatherDisplay:10.37,2013-01-12 10:16:00,
2013-01-12 05:21:00,32.6,31.8,30.06,ENE,61,0.0,0.0,97,0.00,BKN,OVC,0.01,0.0,WeatherDisplay:10.37,2013-01-12 10:21:00,
2013-01-12 05:26:00,32.6,31.8,30.06,ENE,61,2.3,2.3,97,0.00,BKN,OVC,0.01,0.0,WeatherDisplay:10.37,2013-01-12 10:26:00,
2013-01-12 05:31:00,32.6,31.8,30.08,ENE,61,1.1,1.1,97,0.00,BKN,OVC,0.01,0.0,WeatherDisplay:10.37,2013-01-12 10:31:00,
2013-01-12 05:36:00,32.6,31.8,30.08,ENE,61,1.1,1.1,97,0.00,BKN,OVC,0.01,0.0,WeatherDisplay:10.37,2013-01-12 10:36:00,
2013-01-12 05:41:00,32.7,31.9,30.08,ENE,61,1.1,0.0,97,0.00,BKN,OVC,0.01,0.0,WeatherDisplay:10.37,2013-01-12 10:41:00,
2013-01-12 05:46:00,32.8,32.0,30.11,ENE,61,0.0,0.0,97,0.00,BKN,OVC,0.01,0.0,WeatherDisplay:10.37,2013-01-12 10:46:00,
2013-01-12 05:51:00,32.8,32.0,30.11,ENE,61,0.0,0.0,97,0.00,BKN,OVC,0.01,0.0,WeatherDisplay:10.37,2013-01-12 10:51:00,
2013-01-12 05:56:00,32.9,32.1,30.11,ENE,61,2.3,2.3,97,0.00,BKN,OVC,0.01,0.0,WeatherDisplay:10.37,2013-01-12 10:56:00,
2013-01-12 06:01:00,33.0,32.2,30.11,ENE,61,1.1,1.1,97,0.00,BKN,OVC,0.01,0.0,WeatherDisplay:10.37,2013-01-12 11:01:00,
2013-01-12 06:06:00,33.0,32.2,30.11,ENE,61,1.1,1.1,97,0.00,BKN,OVC,0.01,0.0,WeatherDisplay:10.37,2013-01-12 11:06:00,
2013-01-12 06:11:00,33.1,32.3,30.11,ENE,61,0.0,0.0,97,0.00,BKN,OVC,0.01,0.0,WeatherDisplay:10.37,2013-01-12 11:11:00,
2013-01-12 06:16:00,33.1,32.3,30.11,ENE,61,1.1,1.1,97,0.00,BKN,OVC,0.01,0.0,WeatherDisplay:10.37,2013-01-12 11:16:00,
2013-01-12 06:21:00,33.1,32.3,30.11,ENE,61,1.1,1.1,97,0.00,BKN,OVC,0.01,0.0,WeatherDisplay:10.37,2013-01-12 11:21:00,
2013-01-12 06:26:00,33.1,32.3,30.11,ENE,61,1.1,0.0,97,0.00,BKN,OVC,0.01,0.0,WeatherDisplay:10.37,2013-01-12 11:26:00,
2013-01-12 06:31:00,33.1,32.3,30.11,ENE,61,0.0,0.0,97,0.00,BKN,OVC,0.01,0.0,WeatherDisplay:10.37,2013-01-12 11:31:00,
2013-01-12 06:36:00,33.0,32.2,30.11,ENE,61,0.0,0.0,97,0.00,BKN,OVC,0.01,0.0,WeatherDisplay:10.37,2013-01-12 11:36:00,
2013-01-12 06:41:00,33.1,32.3,30.11,ENE,61,1.1,1.1,97,0.00,BKN,OVC,0.01,0.0,WeatherDisplay:10.37,2013-01-12 11:41:00,
2013-01-12 06:46:00,33.1,32.3,30.11,ENE,61,0.0,0.0,97,0.00,BKN,OVC,0.01,0.0,WeatherDisplay:10.37,2013-01-12 11:46:00,
2013-01-12 06:51:00,33.2,32.4,30.11,ENE,61,1.1,0.0,97,0.00,BKN,OVC,0.01,0.0,WeatherDisplay:10.37,2013-01-12 11:51:00,
2013-01-12 06:56:00,33.2,32.4,30.11,ENE,61,0.0,0.0,97,0.00,BKN,OVC,0.01,0.0,WeatherDisplay:10.37,2013-01-12 11:56:00,
2013-01-12 07:01:00,33.2,32.4,30.11,ENE,61,1.0,1.0,97,0.00,BKN,OVC,0.01,0.0,WeatherDisplay:10.37,2013-01-12 12:01:00,
2013-01-12 07:06:00,33.2,32.4,30.11,ENE,61,2.0,2.0,97,0.00,BKN,OVC,0.01,0.0,WeatherDisplay:10.37,2013-01-12 12:06:00,
2013-01-12 07:11:00,33.2,32.4,30.11,ENE,61,0.0,0.0,97,0.00,BKN,OVC,0.01,0.0,WeatherDisplay:10.37,2013-01-12 12:11:00,
2013-01-12 07:16:00,33.2,32.4,30.12,ENE,61,1.1,1.1,97,0.00,BKN,OVC,0.01,0.0,WeatherDisplay:10.37,2013-01-12 12:16:00,
2013-01-12 07:21:00,33.2,32.4,30.12,ENE,61,1.1,0.0,97,0.00,BKN,OVC,0.01,0.0,WeatherDisplay:10.37,2013-01-12 12:21:00,
2013-01-12 07:26:00,33.1,32.3,30.12,ENE,61,1.0,0.0,97,0.00,BKN,OVC,0.01,0.0,WeatherDisplay:10.37,2013-01-12 12:26:00,
2013-01-12 07:31:00,33.1,32.3,30.11,ENE,61,0.0,0.0,97,0.00,BKN,OVC,0.01,0.0,WeatherDisplay:10.37,2013-01-12 12:31:00,
2013-01-12 07:36:00,33.1,32.3,30.11,ENE,61,2.3,2.3,97,0.00,BKN,OVC,0.01,0.0,WeatherDisplay:10.37,2013-01-12 12:36:00,
2013-01-12 07:41:00,33.1,32.3,30.11,ENE,61,0.0,0.0,97,0.00,BKN,OVC,0.01,0.0,WeatherDisplay:10.37,2013-01-12 12:41:00,
2013-01-12 07:46:00,33.2,32.4,30.12,ENE,61,2.0,2.0,97,0.00,BKN,OVC,0.01,9.0,WeatherDisplay:10.37,2013-01-12 12:46:00,
2013-01-12 07:51:00,33.3,32.5,30.12,ENE,61,1.1,1.1,97,0.00,BKN,OVC,0.01,25.0,WeatherDisplay:10.37,2013-01-12 12:51:00,
2013-01-12 07:56:00,33.4,32.6,30.12,ENE,61,2.3,0.0,97,0.00,BKN,OVC,0.01,39.0,WeatherDisplay:10.37,2013-01-12 12:56:00,
2013-01-12 08:01:00,33.5,32.7,30.13,ENE,61,2.3,2.3,97,0.00,BKN,OVC,0.01,42.0,WeatherDisplay:10.37,2013-01-12 13:01:00,
2013-01-12 08:06:00,33.6,32.8,30.13,ENE,61,1.1,1.1,97,0.00,BKN,OVC,0.01,42.0,WeatherDisplay:10.37,2013-01-12 13:06:00,
2013-01-12 08:11:00,33.6,32.8,30.13,ENE,61,2.0,2.0,97,0.00,BKN,OVC,0.01,39.0,WeatherDisplay:10.37,2013-01-12 13:11:00,
2013-01-12 08:16:00,33.6,32.8,30.14,ENE,61,1.1,0.0,97,0.00,BKN,OVC,0.01,39.0,WeatherDisplay:10.37,2013-01-12 13:16:00,
2013-01-12 08:21:00,33.7,32.9,30.14,ENE,61,1.1,1.1,97,0.00,BKN,OVC,0.01,46.0,WeatherDisplay:10.37,2013-01-12 13:21:00,
2013-01-12 08:26:00,33.7,32.9,30.14,ENE,61,0.0,0.0,97,0.00,BKN,OVC,0.01,35.0,WeatherDisplay:10.37,2013-01-12 13:26:00,
2013-01-12 08:31:00,33.7,32.9,30.13,ENE,61,0.0,0.0,97,0.00,BKN,OVC,0.01,35.0,WeatherDisplay:10.37,2013-01-12 13:31:00,
2013-01-12 08:36:00,33.8,33.0,30.13,ENE,61,0.0,0.0,97,0.00,BKN,OVC,0.01,46.0,WeatherDisplay:10.37,2013-01-12 13:36:00,
2013-01-12 08:41:00,33.9,33.1,30.13,ENE,61,0.0,0.0,97,0.00,BKN,OVC,0.01,35.0,WeatherDisplay:10.37,2013-01-12 13:41:00,
2013-01-12 08:46:00,33.9,33.1,30.14,ENE,61,2.3,2.3,97,0.00,BKN,OVC,0.01,32.0,WeatherDisplay:10.37,2013-01-12 13:46:00,
2013-01-12 08:51:00,33.9,33.1,30.14,ENE,61,0.0,0.0,97,0.00,BKN,OVC,0.01,40.0,WeatherDisplay:10.37,2013-01-12 13:51:00,
2013-01-12 08:56:00,34.0,33.2,30.14,ENE,61,0.0,0.0,97,0.00,BKN,OVC,0.01,35.0,WeatherDisplay:10.37,2013-01-12 13:56:00,
2013-01-12 09:01:00,34.1,33.3,30.14,ENE,61,0.0,0.0,97,0.00,BKN,OVC,0.01,40.0,WeatherDisplay:10.37,2013-01-12 14:01:00,
2013-01-12 09:06:00,34.1,33.3,30.14,ENE,61,1.1,1.1,97,0.00,BKN,OVC,0.01,49.0,WeatherDisplay:10.37,2013-01-12 14:06:00,
2013-01-12 09:11:00,34.1,33.3,30.14,ENE,61,1.1,0.0,97,0.00,BKN,OVC,0.01,51.0,WeatherDisplay:10.37,2013-01-12 14:11:00,
2013-01-12 09:16:00,34.2,33.4,30.13,ENE,61,1.1,1.1,97,0.00,BKN,OVC,0.01,60.0,WeatherDisplay:10.37,2013-01-12 14:16:00,
2013-01-12 09:21:00,34.3,33.5,30.13,ENE,61,0.0,0.0,97,0.00,BKN,OVC,0.01,70.0,WeatherDisplay:10.37,2013-01-12 14:21:00,
2013-01-12 09:26:00,34.3,33.5,30.13,ENE,61,0.0,0.0,97,0.00,BKN,OVC,0.01,62.0,WeatherDisplay:10.37,2013-01-12 14:26:00,
2013-01-12 09:31:00,34.4,33.6,30.12,ENE,61,2.3,2.3,97,0.00,BKN,OVC,0.01,65.0,WeatherDisplay:10.37,2013-01-12 14:31:00,
2013-01-12 09:36:00,34.5,33.7,30.12,ENE,61,0.0,0.0,97,0.00,BKN,OVC,0.01,77.0,WeatherDisplay:10.37,2013-01-12 14:36:00,
2013-01-12 09:41:00,34.6,33.8,30.12,ENE,61,2.3,2.3,97,0.00,BKN,OVC,0.01,88.0,WeatherDisplay:10.37,2013-01-12 14:41:00,
2013-01-12 09:46:00,34.7,34.2,30.12,ENE,61,2.3,2.3,98,0.00,BKN,OVC,0.01,91.0,WeatherDisplay:10.37,2013-01-12 14:46:00,
2013-01-12 09:51:00,34.8,34.3,30.12,ENE,61,2.3,2.3,98,0.00,BKN,OVC,0.01,107.0,WeatherDisplay:10.37,2013-01-12 14:51:00,
2013-01-12 09:56:00,34.9,34.1,30.12,ENE,61,1.0,0.0,97,0.00,BKN,OVC,0.01,132.0,WeatherDisplay:10.37,2013-01-12 14:56:00,
2013-01-12 10:01:00,35.0,34.2,30.12,ENE,61,0.0,0.0,97,0.00,BKN,OVC,0.01,135.0,WeatherDisplay:10.37,2013-01-12 15:01:00,
2013-01-12 10:06:00,35.1,34.3,30.12,ENE,61,0.0,0.0,97,0.00,BKN,OVC,0.01,130.0,WeatherDisplay:10.37,2013-01-12 15:06:00,
2013-01-12 10:11:00,35.2,34.7,30.12,ENE,61,0.0,0.0,98,0.00,BKN,OVC,0.01,141.0,WeatherDisplay:10.37,2013-01-12 15:11:00,
2013-01-12 10:16:00,35.4,34.9,30.12,ENE,61,0.0,0.0,98,0.00,BKN,OVC,0.01,162.0,WeatherDisplay:10.37,2013-01-12 15:16:00,
2013-01-12 10:21:00,35.6,35.1,30.12,ENE,61,0.0,0.0,98,0.00,BKN,OVC,0.01,188.0,WeatherDisplay:10.37,2013-01-12 15:21:00,
2013-01-12 10:26:00,36.0,35.5,30.12,ENE,61,1.1,1.1,98,0.00,BKN,OVC,0.01,236.0,WeatherDisplay:10.37,2013-01-12 15:26:00,
2013-01-12 10:31:00,36.5,36.0,30.10,ENE,61,1.1,1.1,98,0.00,BKN,OVC,0.01,206.0,WeatherDisplay:10.37,2013-01-12 15:31:00,
2013-01-12 10:36:00,36.7,36.2,30.10,ENE,61,0.0,0.0,98,0.00,BKN,OVC,0.01,207.0,WeatherDisplay:10.37,2013-01-12 15:36:00,
2013-01-12 10:41:00,36.9,36.4,30.10,ENE,61,0.0,0.0,98,0.00,BKN,OVC,0.01,209.0,WeatherDisplay:10.37,2013-01-12 15:41:00,
2013-01-12 10:46:00,37.1,36.6,30.10,ENE,61,0.0,0.0,98,0.00,BKN,OVC,0.01,232.0,WeatherDisplay:10.37,2013-01-12 15:46:00,
2013-01-12 10:51:00,37.5,37.0,30.10,ENE,61,0.0,0.0,98,0.00,BKN,OVC,0.01,246.0,WeatherDisplay:10.37,2013-01-12 15:51:00,
2013-01-12 10:56:00,37.7,37.2,30.10,ENE,61,2.0,2.0,98,0.00,BKN,OVC,0.01,243.0,WeatherDisplay:10.37,2013-01-12 15:56:00,
2013-01-12 11:01:00,37.5,37.0,30.08,ENE,61,1.1,0.0,98,0.00,BKN,OVC,0.01,236.0,WeatherDisplay:10.37,2013-01-12 16:01:00,
2013-01-12 11:06:00,37.9,37.1,30.08,North,5,2.0,2.0,97,0.00,BKN,OVC,0.01,237.0,WeatherDisplay:10.37,2013-01-12 16:06:00,
2013-01-12 11:11:00,38.1,37.3,30.08,North,5,2.3,2.3,97,0.00,BKN,OVC,0.01,237.0,WeatherDisplay:10.37,2013-01-12 16:11:00,
2013-01-12 11:16:00,38.2,37.7,30.08,North,5,2.3,2.3,98,0.00,BKN,OVC,0.01,253.0,WeatherDisplay:10.37,2013-01-12 16:16:00,
2013-01-12 11:21:00,38.3,37.5,30.08,North,5,1.1,1.1,97,0.00,BKN,OVC,0.01,264.0,WeatherDisplay:10.37,2013-01-12 16:21:00,
2013-01-12 11:26:00,38.6,37.8,30.08,North,5,2.3,2.3,97,0.00,BKN,OVC,0.01,278.0,WeatherDisplay:10.37,2013-01-12 16:26:00,
2013-01-12 11:31:00,38.7,37.9,30.08,North,5,2.3,2.3,97,0.00,BKN,OVC,0.01,302.0,WeatherDisplay:10.37,2013-01-12 16:31:00,
2013-01-12 11:36:00,38.9,38.1,30.08,North,5,1.1,1.1,97,0.00,BKN,OVC,0.01,360.0,WeatherDisplay:10.37,2013-01-12 16:36:00,
2013-01-12 11:41:00,39.2,38.4,30.08,NNW,348,4.0,4.0,97,0.00,BKN,OVC,0.01,357.0,WeatherDisplay:10.37,2013-01-12 16:41:00,
2013-01-12 11:46:00,39.3,38.3,30.07,NNW,348,1.1,1.1,96,0.00,BKN,OVC,0.01,330.0,WeatherDisplay:10.37,2013-01-12 16:46:00,
2013-01-12 11:51:00,39.4,38.4,30.07,NE,47,2.3,2.3,96,0.00,BKN,OVC,0.01,283.0,WeatherDisplay:10.37,2013-01-12 16:51:00,
2013-01-12 11:56:00,39.3,37.7,30.07,NE,47,2.3,2.3,94,0.00,BKN,OVC,0.01,287.0,WeatherDisplay:10.37,2013-01-12 16:56:00,
2013-01-12 12:01:00,39.1,37.5,30.06,NE,47,2.3,2.3,94,0.00,BKN,OVC,0.01,304.0,WeatherDisplay:10.37,2013-01-12 17:01:00,
2013-01-12 12:06:00,39.4,38.1,30.06,NE,47,1.1,1.1,95,0.00,BKN,OVC,0.01,309.0,WeatherDisplay:10.37,2013-01-12 17:06:00,
2013-01-12 12:11:00,39.9,38.3,30.06,NE,47,1.1,1.1,94,0.00,BKN,OVC,0.01,345.0,WeatherDisplay:10.37,2013-01-12 17:11:00,
2013-01-12 12:16:00,40.1,38.5,30.07,NE,47,1.1,0.0,94,0.00,BKN,OVC,0.01,353.0,WeatherDisplay:10.37,2013-01-12 17:16:00,
2013-01-12 12:21:00,40.4,38.5,30.07,NE,47,1.1,1.1,93,0.00,BKN,OVC,0.01,446.0,WeatherDisplay:10.37,2013-01-12 17:21:00,
2013-01-12 12:26:00,40.9,38.8,30.07,NE,47,1.1,1.1,92,0.00,BKN,OVC,0.01,475.0,WeatherDisplay:10.37,2013-01-12 17:26:00,
2013-01-12 12:31:00,41.4,39.3,30.07,NE,47,1.1,0.0,92,0.00,BKN,OVC,0.01,425.0,WeatherDisplay:10.37,2013-01-12 17:31:00,
2013-01-12 12:36:00,42.0,39.6,30.07,NE,47,1.1,0.0,91,0.00,BKN,OVC,0.01,357.0,WeatherDisplay:10.37,2013-01-12 17:36:00,
2013-01-12 12:41:00,42.7,40.0,30.07,NE,47,0.0,0.0,90,0.00,BKN,OVC,0.01,278.0,WeatherDisplay:10.37,2013-01-12 17:41:00,
2013-01-12 12:46:00,43.2,40.2,30.07,NE,47,1.1,1.1,89,0.00,BKN,OVC,0.01,281.0,WeatherDisplay:10.37,2013-01-12 17:46:00,
2013-01-12 12:51:00,43.7,40.4,30.07,NE,47,1.1,1.1,88,0.00,BKN,OVC,0.01,313.0,WeatherDisplay:10.37,2013-01-12 17:51:00,
2013-01-12 12:56:00,43.7,39.8,30.07,NE,47,2.0,2.0,86,0.00,BKN,OVC,0.01,299.0,WeatherDisplay:10.37,2013-01-12 17:56:00,
2013-01-12 13:01:00,43.8,39.9,30.06,NE,47,1.1,1.1,86,0.00,BKN,OVC,0.01,248.0,WeatherDisplay:10.37,2013-01-12 18:01:00,
2013-01-12 13:06:00,44.0,40.1,30.06,NE,47,1.1,1.1,86,0.00,BKN,OVC,0.01,255.0,WeatherDisplay:10.37,2013-01-12 18:06:00,
2013-01-12 13:11:00,44.1,39.9,30.06,NE,47,1.1,1.1,85,0.00,BKN,OVC,0.01,229.0,WeatherDisplay:10.37,2013-01-12 18:11:00,
2013-01-12 13:16:00,44.2,40.3,30.07,NE,47,3.5,3.5,86,0.00,BKN,OVC,0.01,204.0,WeatherDisplay:10.37,2013-01-12 18:16:00,
2013-01-12 13:21:00,44.0,40.4,30.07,ENE,76,3.5,3.5,87,0.00,BKN,OVC,0.01,345.0,WeatherDisplay:10.37,2013-01-12 18:21:00,
2013-01-12 13:26:00,43.9,40.3,30.07,ENE,76,2.3,2.3,87,0.00,BKN,OVC,0.01,371.0,WeatherDisplay:10.37,2013-01-12 18:26:00,
2013-01-12 13:31:00,44.1,40.5,30.06,ENE,69,3.5,3.5,87,0.00,BKN,OVC,0.01,448.0,WeatherDisplay:10.37,2013-01-12 18:31:00,
2013-01-12 13:36:00,44.2,40.6,30.06,ENE,69,3.5,3.5,87,0.00,BKN,OVC,0.01,330.0,WeatherDisplay:10.37,2013-01-12 18:36:00,
2013-01-12 13:41:00,44.5,40.9,30.06,ENE,63,2.3,2.3,87,0.00,BKN,OVC,0.01,353.0,WeatherDisplay:10.37,2013-01-12 18:41:00,
2013-01-12 13:46:00,44.8,41.2,30.07,ENE,63,1.1,1.1,87,0.00,BKN,OVC,0.01,388.0,WeatherDisplay:10.37,2013-01-12 18:46:00,
2013-01-12 13:51:00,45.2,41.6,30.07,ENE,63,1.1,1.1,87,0.00,BKN,OVC,0.01,322.0,WeatherDisplay:10.37,2013-01-12 18:51:00,
2013-01-12 13:56:00,45.6,41.7,30.07,ENE,63,1.1,0.0,86,0.00,BKN,OVC,0.01,185.0,WeatherDisplay:10.37,2013-01-12 18:56:00,
2013-01-12 14:01:00,46.0,42.0,30.08,ENE,63,1.1,1.1,86,0.00,BKN,OVC,0.01,195.0,WeatherDisplay:10.37,2013-01-12 19:01:00,
2013-01-12 14:06:00,46.2,41.9,30.08,ENE,63,2.3,2.3,85,0.00,BKN,OVC,0.01,195.0,WeatherDisplay:10.37,2013-01-12 19:06:00,
2013-01-12 14:11:00,46.4,41.8,30.08,ENE,63,2.3,2.3,84,0.00,BKN,OVC,0.01,132.0,WeatherDisplay:10.37,2013-01-12 19:11:00,
2013-01-12 14:16:00,46.3,41.7,30.07,ENE,63,1.1,1.1,84,0.00,BKN,OVC,0.01,111.0,WeatherDisplay:10.37,2013-01-12 19:16:00,
2013-01-12 14:21:00,46.4,41.8,30.07,ENE,63,2.3,2.3,84,0.00,BKN,OVC,0.01,93.0,WeatherDisplay:10.37,2013-01-12 19:21:00,
2013-01-12 14:26:00,46.3,41.4,30.07,ENE,63,2.3,2.3,83,0.00,BKN,OVC,0.01,76.0,WeatherDisplay:10.37,2013-01-12 19:26:00,
2013-01-12 14:31:00,46.2,41.6,30.08,East,98,3.0,3.0,84,0.00,BKN,OVC,0.01,113.0,WeatherDisplay:10.37,2013-01-12 19:31:00,
2013-01-12 14:36:00,46.1,41.5,30.08,East,99,3.5,3.5,84,0.00,BKN,OVC,0.01,116.0,WeatherDisplay:10.37,2013-01-12 19:36:00,
2013-01-12 14:41:00,46.0,41.4,30.08,East,99,2.3,2.3,84,0.00,BKN,OVC,0.01,105.0,WeatherDisplay:10.37,2013-01-12 19:41:00,
2013-01-12 14:46:00,45.9,41.3,30.08,East,99,2.3,2.3,84,0.00,BKN,OVC,0.01,81.0,WeatherDisplay:10.37,2013-01-12 19:46:00,
2013-01-12 14:51:00,45.9,41.3,30.08,East,99,1.1,0.0,84,0.00,BKN,OVC,0.01,90.0,WeatherDisplay:10.37,2013-01-12 19:51:00,
2013-01-12 14:56:00,45.8,41.2,30.08,East,99,0.0,0.0,84,0.00,BKN,OVC,0.01,134.0,WeatherDisplay:10.37,2013-01-12 19:56:00,
2013-01-12 15:01:00,45.6,41.0,30.07,East,99,1.0,1.0,84,0.00,BKN,OVC,0.01,172.0,WeatherDisplay:10.37,2013-01-12 20:01:00,
2013-01-12 15:06:00,45.5,41.3,30.07,East,99,2.3,2.3,85,0.00,BKN,OVC,0.01,160.0,WeatherDisplay:10.37,2013-01-12 20:06:00,
2013-01-12 15:11:00,45.3,41.1,30.07,East,99,2.3,2.3,85,0.00,BKN,OVC,0.01,109.0,WeatherDisplay:10.37,2013-01-12 20:11:00,
2013-01-12 15:16:00,45.1,40.9,30.08,East,99,1.1,1.1,85,0.00,BKN,OVC,0.01,54.0,WeatherDisplay:10.37,2013-01-12 20:16:00,
2013-01-12 15:21:00,44.8,40.6,30.08,East,99,2.3,2.3,85,0.00,BKN,OVC,0.01,54.0,WeatherDisplay:10.37,2013-01-12 20:21:00,
2013-01-12 15:26:00,44.3,40.4,30.08,East,99,2.3,2.3,86,0.00,BKN,OVC,0.01,46.0,WeatherDisplay:10.37,2013-01-12 20:26:00,
2013-01-12 15:32:00,43.9,40.0,30.07,East,99,1.1,1.1,86,0.00,BKN,OVC,0.01,53.0,WeatherDisplay:10.37,2013-01-12 20:32:00,
2013-01-12 15:37:00,43.6,39.7,30.07,East,99,2.3,2.3,86,0.00,BKN,OVC,0.01,51.0,WeatherDisplay:10.37,2013-01-12 20:37:00,
2013-01-12 15:42:00,43.2,39.6,30.07,East,99,2.3,2.3,87,0.00,BKN,OVC,0.01,58.0,WeatherDisplay:10.37,2013-01-12 20:42:00,
2013-01-12 15:47:00,42.8,39.2,30.06,East,99,3.5,3.5,87,0.00,BKN,OVC,0.01,51.0,WeatherDisplay:10.37,2013-01-12 20:47:00,
2013-01-12 15:52:00,42.5,39.2,30.06,East,99,2.3,2.3,88,0.00,BKN,OVC,0.01,49.0,WeatherDisplay:10.37,2013-01-12 20:52:00,
2013-01-12 15:57:00,42.3,39.3,30.06,East,99,0.0,0.0,89,0.00,BKN,OVC,0.01,37.0,WeatherDisplay:10.37,2013-01-12 20:57:00,
2013-01-12 16:02:00,42.1,39.1,30.06,East,99,1.1,0.0,89,0.00,BKN,OVC,0.01,33.0,WeatherDisplay:10.37,2013-01-12 21:02:00,
2013-01-12 16:07:00,41.9,38.6,30.06,East,99,0.0,0.0,88,0.00,BKN,OVC,0.01,26.0,WeatherDisplay:10.37,2013-01-12 21:07:00,
2013-01-12 16:12:00,41.7,38.4,30.06,East,99,0.0,0.0,88,0.00,BKN,OVC,0.01,23.0,WeatherDisplay:10.37,2013-01-12 21:12:00,
2013-01-12 16:17:00,41.5,38.5,30.07,East,99,0.0,0.0,89,0.00,BKN,OVC,0.01,18.0,WeatherDisplay:10.37,2013-01-12 21:17:00,
2013-01-12 16:22:00,41.3,38.3,30.07,East,99,0.0,0.0,89,0.00,BKN,OVC,0.01,14.0,WeatherDisplay:10.37,2013-01-12 21:22:00,
2013-01-12 16:27:00,40.7,37.7,30.07,East,99,0.0,0.0,89,0.00,BKN,OVC,0.01,11.0,WeatherDisplay:10.37,2013-01-12 21:27:00,
2013-01-12 16:32:00,40.4,37.4,30.07,East,99,0.0,0.0,89,0.00,BKN,OVC,0.01,7.0,WeatherDisplay:10.37,2013-01-12 21:32:00,
2013-01-12 16:37:00,40.1,37.4,30.07,East,99,0.0,0.0,90,0.00,BKN,OVC,0.01,0.0,WeatherDisplay:10.37,2013-01-12 21:37:00,
2013-01-12 16:42:00,39.8,37.1,30.07,East,99,0.0,0.0,90,0.00,BKN,OVC,0.01,0.0,WeatherDisplay:10.37,2013-01-12 21:42:00,
2013-01-12 16:47:00,39.4,36.7,30.07,East,99,1.0,0.0,90,0.00,BKN,OVC,0.01,0.0,WeatherDisplay:10.37,2013-01-12 21:47:00,
2013-01-12 16:52:00,39.1,36.4,30.07,East,99,0.0,0.0,90,0.00,BKN,OVC,0.01,0.0,WeatherDisplay:10.37,2013-01-12 21:52:00,
2013-01-12 16:57:00,38.8,36.1,30.07,East,99,0.0,0.0,90,0.00,BKN,OVC,0.01,0.0,WeatherDisplay:10.37,2013-01-12 21:57:00,
2013-01-12 17:02:00,38.5,35.8,30.07,East,99,0.0,0.0,90,0.00,BKN,OVC,0.01,0.0,WeatherDisplay:10.37,2013-01-12 22:02:00,
2013-01-12 17:07:00,38.1,35.4,30.07,East,99,0.0,0.0,90,0.00,BKN,OVC,0.01,0.0,WeatherDisplay:10.37,2013-01-12 22:07:00,
2013-01-12 17:12:00,37.8,35.1,30.07,East,99,1.1,0.0,90,0.00,BKN,OVC,0.01,0.0,WeatherDisplay:10.37,2013-01-12 22:12:00,
2013-01-12 17:17:00,37.6,34.9,30.08,East,99,0.0,0.0,90,0.00,BKN,OVC,0.01,0.0,WeatherDisplay:10.37,2013-01-12 22:17:00,
2013-01-12 17:22:00,37.4,35.0,30.08,East,99,1.1,0.0,91,0.00,BKN,OVC,0.01,0.0,WeatherDisplay:10.37,2013-01-12 22:22:00,
2013-01-12 17:28:00,37.1,34.7,30.08,East,99,1.1,0.0,91,0.00,BKN,OVC,0.01,0.0,WeatherDisplay:10.37,2013-01-12 22:28:00,
2013-01-12 17:33:00,36.9,34.8,30.07,East,99,1.1,1.1,92,0.00,BKN,OVC,0.01,0.0,WeatherDisplay:10.37,2013-01-12 22:33:00,
2013-01-12 17:38:00,36.7,34.6,30.07,East,99,0.0,0.0,92,0.00,BKN,OVC,0.01,0.0,WeatherDisplay:10.37,2013-01-12 22:38:00,
2013-01-12 17:43:00,36.5,34.4,30.07,East,99,1.1,1.1,92,0.00,BKN,OVC,0.01,0.0,WeatherDisplay:10.37,2013-01-12 22:43:00,
2013-01-12 17:48:00,36.2,34.1,30.06,East,99,0.0,0.0,92,0.00,BKN,OVC,0.01,0.0,WeatherDisplay:10.37,2013-01-12 22:48:00,
2013-01-12 17:53:00,35.9,33.8,30.06,East,99,0.0,0.0,92,0.00,BKN,OVC,0.01,0.0,WeatherDisplay:10.37,2013-01-12 22:53:00,
2013-01-12 17:58:00,35.6,33.8,30.06,East,99,1.1,1.1,93,0.00,BKN,OVC,0.01,0.0,WeatherDisplay:10.37,2013-01-12 22:58:00,
2013-01-12 18:03:00,35.4,33.6,30.06,East,99,1.1,1.1,93,0.00,BKN,OVC,0.01,0.0,WeatherDisplay:10.37,2013-01-12 23:03:00,
2013-01-12 18:08:00,35.2,33.4,30.06,East,99,0.0,0.0,93,0.00,BKN,OVC,0.01,0.0,WeatherDisplay:10.37,2013-01-12 23:08:00,
2013-01-12 18:13:00,35.0,33.2,30.06,East,99,0.0,0.0,93,0.00,BKN,OVC,0.01,0.0,WeatherDisplay:10.37,2013-01-12 23:13:00,
2013-01-12 18:18:00,34.6,32.8,30.06,East,99,1.0,0.0,93,0.00,BKN,OVC,0.01,0.0,WeatherDisplay:10.37,2013-01-12 23:18:00,
2013-01-12 18:23:00,34.3,32.5,30.06,East,99,2.3,2.3,93,0.00,BKN,OVC,0.01,0.0,WeatherDisplay:10.37,2013-01-12 23:23:00,
2013-01-12 18:28:00,34.1,32.3,30.06,East,99,0.0,0.0,93,0.00,BKN,OVC,0.01,0.0,WeatherDisplay:10.37,2013-01-12 23:28:00,
2013-01-12 18:33:00,33.9,32.1,30.07,East,99,0.0,0.0,93,0.00,BKN,OVC,0.01,0.0,WeatherDisplay:10.37,2013-01-12 23:33:00,
2013-01-12 18:39:00,33.6,31.8,30.07,East,99,0.0,0.0,93,0.00,BKN,OVC,0.01,0.0,WeatherDisplay:10.37,2013-01-12 23:39:00,
2013-01-12 18:44:00,33.5,31.7,30.07,East,99,0.0,0.0,93,0.00,BKN,OVC,0.01,0.0,WeatherDisplay:10.37,2013-01-12 23:44:00,
2013-01-12 18:49:00,33.3,31.5,30.06,East,99,0.0,0.0,93,0.00,BKN,OVC,0.01,0.0,WeatherDisplay:10.37,2013-01-12 23:49:00,
2013-01-12 18:54:00,33.2,31.4,30.06,East,99,0.0,0.0,93,0.00,BKN,OVC,0.01,0.0,WeatherDisplay:10.37,2013-01-12 23:54:00,
2013-01-12 18:59:00,33.0,31.2,30.06,East,99,0.0,0.0,93,0.00,BKN,OVC,0.01,0.0,WeatherDisplay:10.37,2013-01-12 23:59:00,
2013-01-12 19:04:00,32.9,31.1,30.07,East,99,0.0,0.0,93,0.00,BKN,OVC,0.01,0.0,WeatherDisplay:10.37,2013-01-13 00:04:00,
2013-01-12 19:09:00,32.9,31.4,30.07,East,99,1.1,1.1,94,0.00,BKN,OVC,0.01,0.0,WeatherDisplay:10.37,2013-01-13 00:09:00,
2013-01-12 19:14:00,32.8,31.3,30.07,East,99,0.0,0.0,94,0.00,BKN,OVC,0.01,0.0,WeatherDisplay:10.37,2013-01-13 00:14:00,
2013-01-12 19:19:00,32.7,31.2,30.06,East,99,1.1,1.1,94,0.00,BKN,OVC,0.01,0.0,WeatherDisplay:10.37,2013-01-13 00:19:00,
2013-01-12 19:24:00,32.6,31.1,30.06,East,99,0.0,0.0,94,0.00,BKN,OVC,0.01,0.0,WeatherDisplay:10.37,2013-01-13 00:24:00,
2013-01-12 19:29:00,32.5,31.0,30.06,East,99,0.0,0.0,94,0.00,BKN,OVC,0.01,0.0,WeatherDisplay:10.37,2013-01-13 00:29:00,
2013-01-12 19:34:00,32.5,31.0,30.08,East,99,0.0,0.0,94,0.00,BKN,OVC,0.01,0.0,WeatherDisplay:10.37,2013-01-13 00:34:00,
2013-01-12 19:39:00,32.4,30.9,30.08,East,99,1.1,0.0,94,0.00,BKN,OVC,0.01,0.0,WeatherDisplay:10.37,2013-01-13 00:39:00,
2013-01-12 19:44:00,32.4,31.1,30.08,East,99,0.0,0.0,95,0.00,BKN,OVC,0.01,0.0,WeatherDisplay:10.37,2013-01-13 00:44:00,
2013-01-12 19:49:00,32.4,30.9,30.07,East,99,2.3,2.3,94,0.00,BKN,OVC,0.01,0.0,WeatherDisplay:10.37,2013-01-13 00:49:00,
2013-01-12 19:54:00,32.3,31.0,30.07,East,99,1.1,1.1,95,0.00,BKN,OVC,0.01,0.0,WeatherDisplay:10.37,2013-01-13 00:54:00,
2013-01-12 19:59:00,32.3,31.0,30.07,East,99,0.0,0.0,95,0.00,BKN,OVC,0.01,0.0,WeatherDisplay:10.37,2013-01-13 00:59:00,
2013-01-12 20:04:00,32.3,31.0,30.08,East,99,0.0,0.0,95,0.00,BKN,OVC,0.01,0.0,WeatherDisplay:10.37,2013-01-13 01:04:00,
2013-01-12 20:09:00,32.3,31.0,30.08,East,99,0.0,0.0,95,0.00,BKN,OVC,0.01,0.0,WeatherDisplay:10.37,2013-01-13 01:09:00,
2013-01-12 20:14:00,32.4,31.1,30.08,East,99,1.1,1.1,95,0.00,BKN,OVC,0.01,0.0,WeatherDisplay:10.37,2013-01-13 01:14:00,
2013-01-12 20:19:00,32.4,31.1,30.08,East,99,2.3,2.3,95,0.00,BKN,OVC,0.01,0.0,WeatherDisplay:10.37,2013-01-13 01:19:00,
2013-01-12 20:24:00,32.3,31.0,30.08,East,99,0.0,0.0,95,0.00,BKN,OVC,0.01,0.0,WeatherDisplay:10.37,2013-01-13 01:24:00,
2013-01-12 20:29:00,32.3,31.0,30.08,East,99,1.1,0.0,95,0.00,BKN,OVC,0.01,0.0,WeatherDisplay:10.37,2013-01-13 01:29:00,
2013-01-12 20:34:00,32.2,30.9,30.07,East,99,0.0,0.0,95,0.00,BKN,OVC,0.01,0.0,WeatherDisplay:10.37,2013-01-13 01:34:00,
2013-01-12 20:39:00,32.2,30.9,30.07,East,99,0.0,0.0,95,0.00,BKN,OVC,0.01,0.0,WeatherDisplay:10.37,2013-01-13 01:39:00,
2013-01-12 20:44:00,32.1,30.8,30.07,East,99,2.3,2.3,95,0.00,BKN,OVC,0.01,0.0,WeatherDisplay:10.37,2013-01-13 01:44:00,
2013-01-12 20:49:00,32.1,30.8,30.08,East,99,1.1,1.1,95,0.00,BKN,OVC,0.01,0.0,WeatherDisplay:10.37,2013-01-13 01:49:00,
2013-01-12 20:54:00,32.0,30.7,30.08,East,99,3.5,3.5,95,0.00,BKN,OVC,0.01,0.0,WeatherDisplay:10.37,2013-01-13 01:54:00,
2013-01-12 20:59:00,32.0,31.0,30.08,East,99,2.3,2.3,96,0.00,BKN,OVC,0.01,0.0,WeatherDisplay:10.37,2013-01-13 01:59:00,
2013-01-12 21:04:00,32.0,31.0,30.07,East,99,1.1,1.1,96,0.00,BKN,OVC,0.01,0.0,WeatherDisplay:10.37,2013-01-13 02:04:00,
2013-01-12 21:09:00,31.9,30.6,30.07,East,99,1.1,1.1,95,0.00,BKN,OVC,0.01,0.0,WeatherDisplay:10.37,2013-01-13 02:09:00,
2013-01-12 21:14:00,31.9,30.9,30.07,East,99,3.5,3.5,96,0.00,BKN,OVC,0.01,0.0,WeatherDisplay:10.37,2013-01-13 02:14:00,
2013-01-12 21:19:00,32.0,31.0,30.06,East,99,3.5,3.5,96,0.00,BKN,OVC,0.01,0.0,WeatherDisplay:10.37,2013-01-13 02:19:00,
2013-01-12 21:24:00,31.9,30.9,30.06,East,99,0.0,0.0,96,0.00,BKN,OVC,0.01,0.0,WeatherDisplay:10.37,2013-01-13 02:24:00,
2013-01-12 21:29:00,31.7,30.7,30.06,East,99,0.0,0.0,96,0.00,BKN,OVC,0.01,0.0,WeatherDisplay:10.37,2013-01-13 02:29:00,
2013-01-12 21:34:00,31.6,30.6,30.07,East,99,3.5,3.5,96,0.00,BKN,OVC,0.01,0.0,WeatherDisplay:10.37,2013-01-13 02:34:00,
2013-01-12 21:39:00,31.6,30.6,30.07,East,99,0.0,0.0,96,0.00,BKN,OVC,0.01,0.0,WeatherDisplay:10.37,2013-01-13 02:39:00,
2013-01-12 21:44:00,31.5,30.5,30.07,East,99,0.0,0.0,96,0.00,BKN,OVC,0.01,0.0,WeatherDisplay:10.37,2013-01-13 02:44:00,
2013-01-12 21:49:00,31.3,30.3,30.07,East,99,1.1,0.0,96,0.00,BKN,OVC,0.01,0.0,WeatherDisplay:10.37,2013-01-13 02:49:00,
2013-01-12 21:55:00,31.2,30.2,30.07,East,99,0.0,1.0,96,0.00,BKN,OVC,0.01,0.0,WeatherDisplay:10.37,2013-01-13 02:55:00,
2013-01-12 22:00:00,31.1,30.1,30.07,East,99,0.0,1.0,96,0.00,BKN,OVC,0.01,0.0,WeatherDisplay:10.37,2013-01-13 03:00:00,
2013-01-12 22:05:00,31.0,30.0,30.07,East,99,0.0,3.0,96,0.00,BKN,OVC,0.01,0.0,WeatherDisplay:10.37,2013-01-13 03:05:00,
2013-01-12 22:10:00,31.0,30.0,30.07,East,99,0.0,2.0,96,0.00,BKN,OVC,0.01,0.0,WeatherDisplay:10.37,2013-01-13 03:10:00,
2013-01-12 22:15:00,30.9,29.9,30.07,East,99,0.0,2.0,96,0.00,BKN,OVC,0.01,0.0,WeatherDisplay:10.37,2013-01-13 03:15:00,
2013-01-12 22:20:00,30.8,29.8,30.07,East,99,0.0,1.0,96,0.00,BKN,OVC,0.01,0.0,WeatherDisplay:10.37,2013-01-13 03:20:00,
2013-01-12 22:25:00,30.7,29.7,30.07,East,99,2.3,0.0,96,0.00,BKN,OVC,0.01,0.0,WeatherDisplay:10.37,2013-01-13 03:25:00,
2013-01-12 22:30:00,30.6,29.6,30.07,East,99,1.1,0.0,96,0.00,BKN,OVC,0.01,0.0,WeatherDisplay:10.37,2013-01-13 03:30:00,
2013-01-12 22:35:00,30.5,29.5,30.07,East,99,1.1,1.1,96,0.00,BKN,OVC,0.01,0.0,WeatherDisplay:10.37,2013-01-13 03:35:00,
2013-01-12 22:41:00,30.6,29.6,30.07,East,99,1.1,0.0,96,0.00,BKN,OVC,0.01,0.0,WeatherDisplay:10.37,2013-01-13 03:41:00,
2013-01-12 22:46:00,30.5,29.5,30.08,East,99,0.0,0.0,96,0.00,BKN,OVC,0.01,0.0,WeatherDisplay:10.37,2013-01-13 03:46:00,
2013-01-12 22:51:00,30.5,29.5,30.08,East,99,2.3,2.3,96,0.00,BKN,OVC,0.01,0.0,WeatherDisplay:10.37,2013-01-13 03:51:00,
2013-01-12 22:56:00,30.4,29.4,30.08,East,99,1.1,1.1,96,0.00,BKN,OVC,0.01,0.0,WeatherDisplay:10.37,2013-01-13 03:56:00,
2013-01-12 23:01:00,30.5,29.5,30.08,East,99,1.1,0.0,96,0.00,BKN,OVC,0.01,0.0,WeatherDisplay:10.37,2013-01-13 04:01:00,
2013-01-12 23:06:00,30.8,30.0,30.08,East,99,2.3,2.3,97,0.00,BKN,OVC,0.01,0.0,WeatherDisplay:10.37,2013-01-13 04:06:00,
2013-01-12 23:11:00,31.0,30.2,30.08,East,99,1.1,0.0,97,0.00,BKN,OVC,0.01,0.0,WeatherDisplay:10.37,2013-01-13 04:11:00,
2013-01-12 23:16:00,31.5,30.7,30.07,East,99,1.1,1.1,97,0.00,BKN,OVC,0.01,0.0,WeatherDisplay:10.37,2013-01-13 04:16:00,
2013-01-12 23:21:00,31.8,31.0,30.07,East,99,2.3,2.3,97,0.00,BKN,OVC,0.01,0.0,WeatherDisplay:10.37,2013-01-13 04:21:00,
2013-01-12 23:26:00,31.8,31.0,30.07,East,99,2.3,2.3,97,0.00,BKN,OVC,0.01,0.0,WeatherDisplay:10.37,2013-01-13 04:26:00,
2013-01-12 23:31:00,31.9,31.1,30.07,East,99,2.3,2.3,97,0.00,BKN,OVC,0.01,0.0,WeatherDisplay:10.37,2013-01-13 04:31:00,
2013-01-12 23:36:00,31.7,30.7,30.07,East,99,3.5,3.5,96,0.00,BKN,OVC,0.01,0.0,WeatherDisplay:10.37,2013-01-13 04:36:00,
2013-01-12 23:41:00,31.3,30.3,30.07,East,99,3.5,0.0,96,0.00,BKN,OVC,0.01,0.0,WeatherDisplay:10.37,2013-01-13 04:41:00,
2013-01-12 23:46:00,31.3,30.5,30.08,East,99,2.0,2.0,97,0.00,BKN,OVC,0.01,0.0,WeatherDisplay:10.37,2013-01-13 04:46:00,
2013-01-12 23:51:00,31.5,30.7,30.08,East,99,1.1,0.0,97,0.00,BKN,OVC,0.01,0.0,WeatherDisplay:10.37,2013-01-13 04:51:00,
2013-01-12 23:56:00,31.6,30.8,30.08,East,99,1.1,1.1,97,0.00,BKN,OVC,0.01,0.0,WeatherDisplay:10.37,2013-01-13 04:56:00,